This demonstration page uses our WeatherBlox Daily Observations layout. Learn more.

Left ArrowRight Arrow

Hourly Observations for November 3, 2020

Temp ( °F °C ) Dew Point ( °F °C ) Humidity (%) Winds ( mph kmh ) Pressure ( in mb ) Visibility ( mi km ) Precip ( " mm )
12:15 am 00:15 Clear 52 11.1 29 -1.8 41 41 SSW 10 17 30.09 1019 10 16 N/A
12:35 am 00:35 Clear 51 10.5 29 -1.7 43 43 SSW 9 15 30.10 1019 10 16 N/A
12:55 am 00:55 Clear 50 10.2 29 -1.5 44 44 SW 7 11 30.09 1019 10 16 N/A
1:15 am 01:15 Clear 48 9.1 29 -1.5 48 48 SW 5 7 30.10 1019 10 16 N/A
1:35 am 01:35 Clear 47 8.6 29 -1.5 49 49 SW 5 7 30.11 1019 10 16 N/A
1:55 am 01:55 Clear 47 8.6 30 -1.3 50 50 SW 6 9 30.11 1019 10 16 N/A
2:15 am 02:15 Clear 49 9.5 30 -1.1 48 48 SW 7 11 30.09 1019 10 16 N/A
2:35 am 02:35 Clear 49 9.4 30 -1.2 48 48 SW 7 11 30.09 1019 10 16 N/A
2:55 am 02:55 Clear 54 12 29 -1.4 40 40 WSW 10 17 30.06 1018 10 16 N/A
3:15 am 03:15 Clear 54 12.4 29 -1.7 38 38 WSW 13 20 30.05 1018 10 16 N/A
3:35 am 03:35 Clear 54 12 29 -1.6 39 39 W 13 20 30.05 1017 10 16 N/A
3:55 am 03:55 Clear 52 11.2 29 -1.5 42 42 WSW 10 17 30.04 1017 10 16 N/A
4:15 am 04:15 Clear 52 11.1 29 -1.5 42 42 WSW 13 20 30.03 1017 10 16 N/A
4:35 am 04:35 Clear 51 10.3 29 -1.4 44 44 WSW 9 15 30.05 1018 10 16 N/A
4:55 am 04:55 Clear 50 10 30 -1.3 46 46 WSW 8 13 30.05 1018 10 16 N/A
5:15 am 05:15 Clear 49 9.2 30 -1.3 48 48 WSW 7 11 30.05 1018 10 16 N/A
5:35 am 05:35 Clear 49 9.7 30 -1.1 47 47 W 10 17 30.05 1017 10 16 N/A
5:55 am 05:55 Clear 50 9.8 29 -1.4 46 46 W 7 11 30.04 1017 10 16 N/A
6:15 am 06:15 Clear 49 9.5 29 -1.6 46 46 W 3 6 30.05 1018 10 16 N/A
6:35 am 06:35 Clear 47 8.4 29 -1.7 49 49 W 6 9 30.05 1018 10 16 N/A
6:55 am 06:55 Clear 43 6.1 29 -1.7 58 58 W 7 11 30.07 1018 10 16 N/A
7:15 am 07:15 Sunny 42 5.6 28 -2 58 58 W 6 9 30.06 1018 10 16 N/A
7:35 am 07:35 Sunny 42 5.6 29 -1.9 59 59 W 7 11 30.08 1019 10 16 N/A
7:55 am 07:55 Sunny 45 7 30 -1 57 57 W 7 11 30.06 1018 10 16 N/A
8:15 am 08:15 Sunny 47 8.6 31 -0.7 52 52 WSW 5 7 30.05 1017 10 16 N/A
8:35 am 08:35 Sunny 51 10.7 30 -1.1 44 44 WSW 7 11 30.04 1017 10 16 N/A
8:55 am 08:55 Sunny 54 12.2 29 -1.4 39 39 WSW 6 9 30.02 1017 10 16 N/A
9:15 am 09:15 Sunny 56 13.5 30 -1.1 37 37 WSW 8 13 30.01 1016 10 16 N/A
9:35 am 09:35 Sunny 58 14.3 30 -0.9 35 35 WSW 6 9 30.01 1016 10 16 N/A
9:55 am 09:55 Sunny 60 15.5 30 -0.9 33 33 SW 3 6 29.99 1016 10 16 N/A
10:15 am 10:15 Sunny 62 16.9 31 -0.5 31 31 WSW 3 6 29.98 1015 10 16 N/A
10:35 am 10:35 Sunny 64 18 31 -0.6 29 29 SW 3 6 29.97 1015 10 16 N/A
10:55 am 10:55 Sunny 66 19 32 undefined 28 28 SW 3 6 29.97 1015 10 16 N/A
11:15 am 11:15 Sunny 68 19.9 33 0.3 27 27 SSW 7 11 29.95 1014 10 16 N/A
11:35 am 11:35 Sunny 70 21.1 32 0.1 25 25 SW 6 9 29.93 1013 10 16 N/A
11:55 am 11:55 Sunny 71 21.6 32 undefined 24 24 SSW 8 13 29.91 1013 10 16 N/A
12:15 pm 12:15 Sunny 73 23 32 0.1 22 22 SSW 8 13 29.89 1012 10 16 N/A
12:35 pm 12:35 Sunny 75 23.8 32 0.1 21 21 SW 9 15 29.89 1012 10 16 N/A
12:55 pm 12:55 Sunny 77 24.8 31 -0.7 19 19 SSW 9 15 29.86 1011 10 16 N/A
1:15 pm 13:15 Sunny 78 25.5 31 -0.8 18 18 SSW 13 20 29.84 1011 10 16 N/A
1:35 pm 13:35 Sunny 78 25.7 30 -1.1 17 17 SSW 13 20 29.83 1010 10 16 N/A
1:55 pm 13:55 Sunny 80 26.5 29 -1.6 16 16 SSW 12 19 29.81 1010 10 16 N/A
2:15 pm 14:15 Sunny 80 26.6 29 -1.6 16 16 SSW 16 26 29.81 1010 10 16 N/A
2:35 pm 14:35 Sunny 81 27.2 29 -1.7 15 15 SW 13 20 29.80 1009 10 16 N/A
2:55 pm 14:55 Sunny 82 27.6 28 -2.1 14 14 SSW 13 20 29.79 1009 10 16 N/A
3:15 pm 15:15 Sunny 82 28 28 -2.2 14 14 SW 13 20 29.78 1009 10 16 N/A
3:35 pm 15:35 Sunny 82 28 27 -2.6 13 13 SW 9 15 29.78 1009 10 16 N/A
3:55 pm 15:55 Sunny 82 27.6 28 -2.1 14 14 SW 10 17 29.79 1009 10 16 N/A
4:15 pm 16:15 Sunny 81 27.1 29 -1.8 15 15 SSW 8 13 29.79 1009 10 16 N/A
4:35 pm 16:35 Sunny 79 26.2 29 -1.7 16 16 SSW 7 11 29.80 1009 10 16 N/A
4:55 pm 16:55 Sunny 77 25.1 28 -2 17 17 S 5 7 29.81 1009 10 16 N/A
5:15 pm 17:15 Sunny 74 23.3 28 -2.2 18 18 SSW 5 7 29.82 1010 10 16 N/A
5:35 pm 17:35 Clear 70 21.3 29 -1.8 21 21 S 6 9 29.85 1011 10 16 N/A
5:55 pm 17:55 Clear 68 20.1 30 -0.9 24 24 SSW 7 11 29.85 1011 10 16 N/A
6:15 pm 18:15 Clear 66 18.8 31 -0.8 27 27 SSW 7 11 29.86 1011 10 16 N/A
6:35 pm 18:35 Clear 63 17.1 30 -0.9 30 30 SSW 7 11 29.88 1012 10 16 N/A
6:55 pm 18:55 Clear 61 16.3 31 -0.7 32 32 SSW 6 9 29.89 1012 10 16 N/A
7:15 pm 19:15 Clear 61 16.3 31 -0.5 32 32 SSW 8 13 29.90 1012 10 16 N/A
7:35 pm 19:35 Clear 61 16.1 31 -0.3 33 33 SSW 7 11 29.91 1013 10 16 N/A
7:55 pm 19:55 Clear 60 15.6 32 undefined 35 35 SSW 6 9 29.90 1013 10 16 N/A
8:15 pm 20:15 Clear 59 15.2 32 0.2 36 36 SSW 7 11 29.91 1013 10 16 N/A
8:35 pm 20:35 Clear 58 14.2 33 0.5 39 39 SSW 8 13 29.92 1013 10 16 N/A
8:55 pm 20:55 Clear 58 14.2 34 1.1 41 41 SSW 7 11 29.93 1013 10 16 N/A
9:15 pm 21:15 Clear 57 13.9 34 1.3 43 43 SSW 8 13 29.92 1013 10 16 N/A
9:35 pm 21:35 Clear 58 14.6 35 1.5 41 41 SSW 8 13 29.92 1013 10 16 N/A
9:55 pm 21:55 Clear 58 14.6 35 1.5 41 41 SW 7 11 29.93 1014 10 16 N/A
10:15 pm 22:15 Clear 58 14.5 34 1.1 40 40 SW 7 11 29.92 1013 10 16 N/A
10:35 pm 22:35 Clear 56 13.3 34 0.9 43 43 SSW 5 7 29.93 1014 10 16 N/A
10:55 pm 22:55 Clear 53 11.7 33 0.5 46 46 N N/A 29.95 1014 10 16 N/A
11:15 pm 23:15 Clear 54 12.4 33 0.5 44 44 SW 5 7 29.95 1014 10 16 N/A
11:35 pm 23:35 Clear 55 12.8 32 undefined 42 42 N N/A 29.94 1014 10 16 N/A
11:55 pm 23:55 Clear 55 12.6 32 undefined 42 42 WSW 3 6 29.94 1014 10 16 N/A

Powered by AerisWeather